| time (UTC) | temp F | wind direction | speed MPH | gust MPH | rain 1hr in | rain 24hr in | rain mn in | humidity % | barometer mb |
| 20260508202459 | 68 | 243 | 7.0 | 19.0 | 0.00 | 0.00 | 0.00 | 38 | 1010.3 |
| 20260508201959 | 67 | 246 | 9.0 | 15.0 | 0.00 | 0.00 | 0.00 | 37 | 1010.5 |
| 20260508201458 | 67 | 242 | 10.0 | 15.0 | 0.00 | 0.00 | 0.00 | 37 | 1010.4 |
| 20260508200958 | 67 | 238 | 10.0 | 13.0 | 0.00 | 0.00 | 0.00 | 37 | 1010.4 |
| 20260508200457 | 68 | 203 | 9.0 | 13.0 | 0.00 | 0.00 | 0.00 | 37 | 1010.4 |
| 20260508195957 | 67 | 256 | 5.0 | 17.0 | 0.00 | 0.00 | 0.00 | 37 | 1010.5 |
| 20260508195456 | 67 | 225 | 10.0 | 15.0 | 0.00 | 0.00 | 0.00 | 37 | 1010.5 |
| 20260508194956 | 67 | 225 | 8.0 | 16.0 | 0.00 | 0.00 | 0.00 | 37 | 1010.7 |
| 20260508194455 | 67 | 221 | 9.0 | 19.0 | 0.00 | 0.00 | 0.00 | 36 | 1010.7 |
| 20260508193955 | 68 | 232 | 9.0 | 16.0 | 0.00 | 0.00 | 0.00 | 36 | 1010.6 |
| 20260508193454 | 68 | 246 | 11.0 | 11.0 | 0.00 | 0.00 | 0.00 | 36 | 1010.6 |
| 20260508192953 | 68 | 236 | 7.0 | 16.0 | 0.00 | 0.00 | 0.00 | 36 | 1010.7 |
| 20260508192453 | 68 | 255 | 8.0 | 15.0 | 0.00 | 0.00 | 0.00 | 37 | 1010.7 |
| 20260508191952 | 68 | 274 | 10.0 | 17.0 | 0.00 | 0.00 | 0.00 | 36 | 1010.7 |
| 20260508191452 | 68 | 245 | 6.0 | 24.0 | 0.00 | 0.00 | 0.00 | 36 | 1010.8 |
| 20260508190951 | 68 | 208 | 14.0 | 18.0 | 0.00 | 0.00 | 0.00 | 36 | 1011.0 |
| 20260508185950 | 69 | 212 | 9.0 | 21.0 | 0.00 | 0.00 | 0.00 | 37 | 1011.0 |
| 20260508185450 | 69 | 257 | 9.0 | 14.0 | 0.00 | 0.00 | 0.00 | 37 | 1011.1 |
| 20260508184949 | 69 | 245 | 8.0 | 17.0 | 0.00 | 0.00 | 0.00 | 39 | 1011.3 |
| 20260508184448 | 68 | 228 | 10.0 | 18.0 | 0.00 | 0.00 | 0.00 | 38 | 1011.3 |
| 20260508183947 | 68 | 229 | 10.0 | 18.0 | 0.00 | 0.00 | 0.00 | 40 | 1011.3 |
| 20260508183447 | 68 | 256 | 8.0 | 14.0 | 0.00 | 0.00 | 0.00 | 40 | 1011.4 |
| 20260508182946 | 68 | 229 | 8.0 | 18.0 | 0.00 | 0.00 | 0.00 | 38 | 1011.4 |
| 20260508182445 | 69 | 190 | 7.0 | 16.0 | 0.00 | 0.00 | 0.00 | 41 | 1011.5 |
| 20260508181944 | 68 | 250 | 9.0 | 20.0 | 0.00 | 0.00 | 0.00 | 39 | 1011.7 |
| 20260508180443 | 67 | 255 | 5.0 | 18.0 | 0.00 | 0.00 | 0.00 | 40 | 1011.8 |
| 20260508175439 | 66 | 252 | 11.0 | 15.0 | 0.00 | 0.00 | 0.00 | 39 | 1012.1 |
| 20260508174939 | 67 | 232 | 10.0 | 13.0 | 0.00 | 0.00 | 0.00 | 40 | 1012.2 |
| 20260508174438 | 67 | 252 | 7.0 | 19.0 | 0.00 | 0.00 | 0.00 | 41 | 1012.1 |
| 20260508173938 | 66 | 253 | 10.0 | 13.0 | 0.00 | 0.00 | 0.00 | 40 | 1012.1 |
| 20260508173437 | 66 | 198 | 9.0 | 16.0 | 0.00 | 0.00 | 0.00 | 41 | 1012.2 |
| 20260508172937 | 66 | 239 | 9.0 | 19.0 | 0.00 | 0.00 | 0.00 | 40 | 1012.4 |
| 20260508172436 | 66 | 225 | 14.0 | 18.0 | 0.00 | 0.00 | 0.00 | 41 | 1012.6 |
| 20260508171936 | 66 | 243 | 6.0 | 15.0 | 0.00 | 0.00 | 0.00 | 41 | 1012.7 |
| 20260508171435 | 66 | 194 | 5.0 | 18.0 | 0.00 | 0.00 | 0.00 | 40 | 1012.7 |
| 20260508170935 | 66 | 219 | 11.0 | 15.0 | 0.00 | 0.00 | 0.00 | 41 | 1012.8 |
| 20260508170434 | 66 | 221 | 10.0 | 28.0 | 0.00 | 0.00 | 0.00 | 40 | 1012.8 |
| 20260508165934 | 66 | 236 | 9.0 | 17.0 | 0.00 | 0.00 | 0.00 | 40 | 1012.8 |
| 20260508164933 | 68 | 218 | 8.0 | 15.0 | 0.00 | 0.00 | 0.00 | 40 | 1013.1 |
| 20260508163932 | 66 | 186 | 9.0 | 15.0 | 0.00 | 0.00 | 0.00 | 40 | 1013.3 |
| 20260508163431 | 67 | 219 | 9.0 | 22.0 | 0.00 | 0.00 | 0.00 | 42 | 1013.2 |
| 20260508162430 | 66 | 203 | 12.0 | 22.0 | 0.00 | 0.00 | 0.00 | 41 | 1013.5 |
| 20260508161930 | 65 | 253 | 11.0 | 18.0 | 0.00 | 0.00 | 0.00 | 41 | 1013.4 |
| 20260508161429 | 65 | 218 | 11.0 | 18.0 | 0.00 | 0.00 | 0.00 | 44 | 1013.4 |
| 20260508160427 | 65 | 240 | 10.0 | 15.0 | 0.00 | 0.00 | 0.00 | 44 | 1013.5 |
| 20260508155926 | 64 | 224 | 10.0 | 23.0 | 0.00 | 0.00 | 0.00 | 44 | 1013.6 |
| 20260508155425 | 64 | 233 | 11.0 | 17.0 | 0.00 | 0.00 | 0.00 | 43 | 1013.6 |
| 20260508154924 | 64 | 215 | 11.0 | 22.0 | 0.00 | 0.00 | 0.00 | 45 | 1013.7 |
| 20260508154424 | 64 | 217 | 11.0 | 20.0 | 0.00 | 0.00 | 0.00 | 44 | 1013.7 |
| 20260508153924 | 64 | 256 | 12.0 | 19.0 | 0.00 | 0.00 | 0.00 | 45 | 1013.8 |
| 20260508153423 | 63 | 235 | 8.0 | 17.0 | 0.00 | 0.00 | 0.00 | 46 | 1013.8 |
| 20260508152922 | 63 | 211 | 11.0 | 18.0 | 0.00 | 0.00 | 0.00 | 46 | 1013.8 |
| 20260508152422 | 63 | 195 | 10.0 | 16.0 | 0.00 | 0.00 | 0.00 | 45 | 1013.8 |
| 20260508151921 | 63 | 246 | 9.0 | 16.0 | 0.00 | 0.00 | 0.00 | 46 | 1014.0 |
| 20260508151421 | 62 | 218 | 9.0 | 16.0 | 0.00 | 0.00 | 0.00 | 48 | 1014.0 |
| 20260508150920 | 62 | 233 | 7.0 | 16.0 | 0.00 | 0.00 | 0.00 | 48 | 1014.1 |
| 20260508150420 | 61 | 217 | 10.0 | 17.0 | 0.00 | 0.00 | 0.00 | 47 | 1014.2 |
| 20260508145919 | 61 | 235 | 12.0 | 18.0 | 0.00 | 0.00 | 0.00 | 47 | 1014.1 |
| 20260508145419 | 61 | 276 | 12.0 | 18.0 | 0.00 | 0.00 | 0.00 | 49 | 1014.2 |
| 20260508144918 | 61 | 242 | 9.0 | 17.0 | 0.00 | 0.00 | 0.00 | 48 | 1014.2 |
| 20260508144418 | 60 | 243 | 8.0 | 12.0 | 0.00 | 0.00 | 0.00 | 48 | 1014.2 |
| 20260508143917 | 60 | 229 | 8.0 | 13.0 | 0.00 | 0.00 | 0.00 | 50 | 1014.3 |
| 20260508142916 | 59 | 226 | 12.0 | 16.0 | 0.00 | 0.00 | 0.00 | 50 | 1014.4 |
| 20260508142415 | 58 | 215 | 10.0 | 16.0 | 0.00 | 0.00 | 0.00 | 51 | 1014.5 |
| 20260508141915 | 58 | 215 | 11.0 | 14.0 | 0.00 | 0.00 | 0.00 | 51 | 1014.6 |
| 20260508140914 | 57 | 222 | 11.0 | 17.0 | 0.00 | 0.00 | 0.00 | 51 | 1014.8 |
| 20260508140413 | 57 | 219 | 11.0 | 15.0 | 0.00 | 0.00 | 0.00 | 51 | 1014.7 |
| 20260508135913 | 57 | 255 | 9.0 | 18.0 | 0.00 | 0.00 | 0.00 | 52 | 1014.7 |
| 20260508135413 | 56 | 240 | 10.0 | 15.0 | 0.00 | 0.00 | 0.00 | 52 | 1014.7 |
| 20260508134912 | 57 | 231 | 9.0 | 21.0 | 0.00 | 0.00 | 0.00 | 52 | 1014.8 |
| 20260508134411 | 56 | 235 | 12.0 | 19.0 | 0.00 | 0.00 | 0.00 | 51 | 1014.8 |
| 20260508133909 | 56 | 242 | 6.0 | 17.0 | 0.00 | 0.00 | 0.00 | 52 | 1014.8 |
| 20260508133408 | 56 | 250 | 10.0 | 13.0 | 0.00 | 0.00 | 0.00 | 51 | 1014.8 |
| 20260508132908 | 56 | 252 | 7.0 | 20.0 | 0.00 | 0.00 | 0.00 | 52 | 1014.8 |
| 20260508132407 | 56 | 239 | 7.0 | 18.0 | 0.00 | 0.00 | 0.00 | 52 | 1014.7 |
| 20260508131406 | 56 | 222 | 5.0 | 16.0 | 0.00 | 0.00 | 0.00 | 52 | 1014.7 |
| 20260508130906 | 55 | 246 | 5.0 | 16.0 | 0.00 | 0.00 | 0.00 | 53 | 1014.7 |
| 20260508130404 | 55 | 238 | 9.0 | 15.0 | 0.00 | 0.00 | 0.00 | 51 | 1014.7 |
| 20260508125904 | 55 | 205 | 9.0 | 9.0 | 0.00 | 0.00 | 0.00 | 51 | 1014.7 |
| 20260508125403 | 55 | 203 | 3.0 | 11.0 | 0.00 | 0.00 | 0.00 | 53 | 1014.7 |
| 20260508124903 | 55 | 214 | 7.0 | 12.0 | 0.00 | 0.00 | 0.00 | 53 | 1014.7 |
| 20260508124402 | 55 | 201 | 3.0 | 8.0 | 0.00 | 0.00 | 0.00 | 55 | 1014.7 |
| 20260508123901 | 54 | 195 | 3.0 | 8.0 | 0.00 | 0.00 | 0.00 | 56 | 1014.6 |
| 20260508123401 | 54 | 221 | 3.0 | 7.0 | 0.00 | 0.00 | 0.00 | 58 | 1014.6 |
| 20260508122901 | 53 | 176 | 1.0 | 7.0 | 0.00 | 0.00 | 0.00 | 58 | 1014.6 |
| 20260508122400 | 53 | 203 | 2.0 | 6.0 | 0.00 | 0.00 | 0.00 | 59 | 1014.7 |
| 20260508121859 | 53 | 214 | 3.0 | 5.0 | 0.00 | 0.00 | 0.00 | 59 | 1014.7 |
| 20260508121359 | 52 | 187 | 3.0 | 5.0 | 0.00 | 0.00 | 0.00 | 61 | 1014.8 |
| 20260508120358 | 51 | 150 | 0.0 | 3.0 | 0.00 | 0.00 | 0.00 | 62 | 1014.6 |
| 20260508115857 | 51 | 167 | 1.0 | 7.0 | 0.00 | 0.00 | 0.00 | 62 | 1014.6 |
| 20260508115357 | 51 | 210 | 3.0 | 7.0 | 0.00 | 0.00 | 0.00 | 62 | 1014.5 |
| 20260508113855 | 50 | 187 | 4.0 | 5.0 | 0.00 | 0.00 | 0.00 | 63 | 1014.4 |
| 20260508113355 | 50 | 177 | 0.0 | 4.0 | 0.00 | 0.00 | 0.00 | 64 | 1014.3 |
| 20260508112854 | 50 | 201 | 1.0 | 5.0 | 0.00 | 0.00 | 0.00 | 64 | 1014.3 |
| 20260508111853 | 50 | 200 | 3.0 | 6.0 | 0.00 | 0.00 | 0.00 | 64 | 1014.3 |
| 20260508111353 | 50 | 150 | 2.0 | 3.0 | 0.00 | 0.00 | 0.00 | 64 | 1014.1 |
| 20260508110852 | 50 | 170 | 1.0 | 4.0 | 0.00 | 0.00 | 0.00 | 64 | 1014.1 |
| 20260508105850 | 49 | 166 | 3.0 | 7.0 | 0.00 | 0.00 | 0.00 | 64 | 1014.1 |
| 20260508105349 | 49 | 200 | 2.0 | 5.0 | 0.00 | 0.00 | 0.00 | 65 | 1014.0 |
| 20260508104849 | 49 | 214 | 1.0 | 6.0 | 0.00 | 0.00 | 0.00 | 65 | 1014.0 |
| 20260508104347 | 49 | 138 | 2.0 | 6.0 | 0.00 | 0.00 | 0.00 | 65 | 1013.8 |
| 20260508103847 | 49 | 218 | 4.0 | 5.0 | 0.00 | 0.00 | 0.00 | 65 | 1014.0 |
| 20260508103346 | 49 | 214 | 2.0 | 6.0 | 0.00 | 0.00 | 0.00 | 65 | 1014.0 |
| 20260508102846 | 49 | 176 | 3.0 | 5.0 | 0.00 | 0.00 | 0.00 | 66 | 1014.1 |
| 20260508102345 | 49 | 183 | 2.0 | 5.0 | 0.00 | 0.00 | 0.00 | 66 | 1014.1 |
| 20260508101845 | 49 | 127 | 3.0 | 4.0 | 0.00 | 0.00 | 0.00 | 66 | 1014.1 |
| 20260508101344 | 49 | 194 | 1.0 | 5.0 | 0.00 | 0.00 | 0.00 | 67 | 1014.2 |
| 20260508100844 | 48 | 188 | 3.0 | 4.0 | 0.00 | 0.00 | 0.00 | 67 | 1014.1 |
| 20260508100343 | 48 | 152 | 1.0 | 5.0 | 0.00 | 0.00 | 0.00 | 67 | 1014.1 |
| 20260508095843 | 48 | 177 | 2.0 | 5.0 | 0.00 | 0.00 | 0.00 | 67 | 1014.1 |
| 20260508095342 | 48 | 174 | 3.0 | 5.0 | 0.00 | 0.00 | 0.00 | 67 | 1014.1 |
| 20260508094842 | 48 | 169 | 3.0 | 5.0 | 0.00 | 0.00 | 0.00 | 67 | 1014.2 |
| 20260508094341 | 48 | 159 | 3.0 | 4.0 | 0.00 | 0.00 | 0.00 | 68 | 1014.3 |
| 20260508093841 | 48 | 181 | 3.0 | 5.0 | 0.00 | 0.00 | 0.00 | 68 | 1014.2 |
| 20260508093340 | 48 | 165 | 4.0 | 5.0 | 0.00 | 0.00 | 0.00 | 69 | 1014.2 |
| 20260508092840 | 48 | 160 | 2.0 | 2.0 | 0.00 | 0.00 | 0.00 | 69 | 1014.3 |
| 20260508092339 | 48 | 162 | 0.0 | 1.0 | 0.00 | 0.00 | 0.00 | 69 | 1014.2 |
| 20260508091838 | 48 | 162 | 0.0 | 2.0 | 0.00 | 0.00 | 0.00 | 69 | 1014.3 |
| 20260508091425 | 48 | 153 | 0.0 | 3.0 | 0.00 | 0.00 | 0.00 | 69 | 1014.3 |
| 20260508091337 | 48 | 153 | 0.0 | 3.0 | 0.00 | 0.00 | 0.00 | 69 | 1014.3 |
| 20260508090836 | 48 | 127 | 1.0 | 0.0 | 0.00 | 0.00 | 0.00 | 69 | 1014.2 |
| 20260508090336 | 48 | 103 | 0.0 | 1.0 | 0.00 | 0.00 | 0.00 | 70 | 1014.2 |
| 20260508085835 | 48 | 103 | 1.0 | 0.0 | 0.00 | 0.00 | 0.00 | 70 | 1014.3 |
| 20260508085334 | 48 | 257 | 0.0 | 0.0 | 0.00 | 0.00 | 0.00 | 70 | 1014.1 |
| 20260508084333 | 48 | 257 | 0.0 | 0.0 | 0.00 | 0.00 | 0.00 | 69 | 1014.2 |
| 20260508083832 | 48 | 257 | 0.0 | 0.0 | 0.00 | 0.00 | 0.00 | 68 | 1014.1 |
| 20260508083332 | 48 | 257 | 0.0 | 4.0 | 0.00 | 0.00 | 0.00 | 68 | 1014.2 |
| 20260508082831 | 47 | 257 | 0.0 | 4.0 | 0.00 | 0.00 | 0.00 | 68 | 1014.2 |
| 20260508082330 | 47 | 214 | 2.0 | 6.0 | 0.00 | 0.00 | 0.00 | 69 | 1014.2 |
| 20260508081829 | 46 | 240 | 1.0 | 0.0 | 0.00 | 0.00 | 0.00 | 70 | 1014.2 |
| 20260508081329 | 46 | 232 | 0.0 | 0.0 | 0.00 | 0.00 | 0.00 | 70 | 1014.2 |
| 20260508080828 | 47 | 232 | 0.0 | 0.0 | 0.00 | 0.00 | 0.00 | 69 | 1014.2 |
| 20260508080328 | 47 | 232 | 0.0 | 0.0 | 0.00 | 0.00 | 0.00 | 68 | 1014.1 |
| 20260508075827 | 48 | 232 | 0.0 | 0.0 | 0.00 | 0.00 | 0.00 | 66 | 1014.2 |
| 20260508074826 | 48 | 207 | 0.0 | 3.0 | 0.00 | 0.00 | 0.00 | 65 | 1014.0 |
| 20260508074325 | 48 | 197 | 1.0 | 4.0 | 0.00 | 0.00 | 0.00 | 65 | 1014.1 |
| 20260508073825 | 48 | 240 | 1.0 | 2.0 | 0.00 | 0.00 | 0.00 | 66 | 1014.1 |
| 20260508073324 | 48 | 233 | 0.0 | 0.0 | 0.00 | 0.00 | 0.00 | 66 | 1014.1 |
| 20260508072824 | 48 | 207 | 0.0 | 0.0 | 0.00 | 0.00 | 0.00 | 66 | 1014.0 |
| 20260508072323 | 48 | 207 | 0.0 | 2.0 | 0.00 | 0.00 | 0.00 | 65 | 1014.1 |
| 20260508071823 | 48 | 207 | 0.0 | 2.0 | 0.00 | 0.00 | 0.00 | 64 | 1014.1 |
| 20260508071322 | 48 | 201 | 0.0 | 9.0 | 0.00 | 0.00 | 0.00 | 64 | 1014.2 |
| 20260508070822 | 48 | 253 | 1.0 | 0.0 | 0.00 | 0.00 | 0.00 | 65 | 1014.3 |
| 20260508070321 | 48 | 239 | 0.0 | 4.0 | 0.00 | 0.00 | 0.00 | 65 | 1014.3 |
| 20260508065821 | 48 | 215 | 2.0 | 3.0 | 0.00 | 0.00 | 0.00 | 65 | 1014.3 |
| 20260508065320 | 48 | 264 | 0.0 | 4.0 | 0.00 | 0.00 | 0.00 | 66 | 1014.4 |
| 20260508064820 | 47 | 86 | 0.0 | 4.0 | 0.00 | 0.00 | 0.00 | 67 | 1014.3 |
| 20260508064319 | 47 | 79 | 0.0 | 1.0 | 0.00 | 0.00 | 0.00 | 68 | 1014.4 |
| 20260508063819 | 47 | 184 | 0.0 | 0.0 | 0.00 | 0.00 | 0.00 | 69 | 1014.5 |
| 20260508063318 | 47 | 184 | 0.0 | 0.0 | 0.00 | 0.00 | 0.00 | 69 | 1014.6 |
| 20260508062818 | 47 | 184 | 0.0 | 0.0 | 0.00 | 0.00 | 0.00 | 69 | 1014.6 |
| 20260508062317 | 47 | 184 | 0.0 | 0.0 | 0.00 | 0.00 | 0.00 | 69 | 1014.7 |
| 20260508061817 | 47 | 184 | 0.0 | 0.0 | 0.00 | 0.00 | 0.00 | 68 | 1014.7 |
| 20260508061316 | 47 | 184 | 0.0 | 0.0 | 0.00 | 0.00 | 0.00 | 68 | 1014.7 |
| 20260508060815 | 47 | 184 | 0.0 | 0.0 | 0.00 | 0.00 | 0.00 | 68 | 1014.7 |
| 20260508060315 | 47 | 184 | 0.0 | 0.0 | 0.00 | 0.00 | 0.00 | 68 | 1014.8 |
| 20260508055815 | 47 | 184 | 0.0 | 0.0 | 0.00 | 0.00 | 0.00 | 69 | 1014.7 |
| 20260508055314 | 47 | 184 | 0.0 | 0.0 | 0.00 | 0.00 | 0.00 | 68 | 1014.7 |
| 20260508054813 | 47 | 184 | 0.0 | 0.0 | 0.00 | 0.00 | 0.00 | 67 | 1014.6 |
| 20260508054313 | 48 | 184 | 0.0 | 0.0 | 0.00 | 0.00 | 0.00 | 66 | 1014.7 |
| 20260508053813 | 48 | 184 | 0.0 | 0.0 | 0.00 | 0.00 | 0.00 | 65 | 1014.7 |
| 20260508053312 | 48 | 184 | 0.0 | 1.0 | 0.00 | 0.00 | 0.00 | 63 | 1014.8 |
| 20260508052811 | 49 | 162 | 0.0 | 0.0 | 0.00 | 0.00 | 0.00 | 63 | 1014.8 |
| 20260508052311 | 49 | 162 | 0.0 | 0.0 | 0.00 | 0.00 | 0.00 | 62 | 1014.8 |
| 20260508051810 | 50 | 162 | 0.0 | 0.0 | 0.00 | 0.00 | 0.00 | 60 | 1014.7 |
| 20260508051409 | 50 | 162 | 0.0 | 0.0 | 0.00 | 0.00 | 0.00 | 61 | 1014.7 |
| 20260508051310 | 50 | 162 | 0.0 | 0.0 | 0.00 | 0.00 | 0.00 | 61 | 1014.7 |
| 20260508050809 | 51 | 162 | 0.0 | 2.0 | 0.00 | 0.00 | 0.00 | 58 | 1014.6 |
| 20260508045808 | 51 | 188 | 0.0 | 5.0 | 0.00 | 0.00 | 0.00 | 56 | 1014.6 |
| 20260508045308 | 51 | 184 | 3.0 | 5.0 | 0.00 | 0.22 | 0.00 | 56 | 1014.7 |
| 20260508044807 | 51 | 239 | 2.0 | 0.0 | 0.00 | 0.22 | 0.00 | 56 | 1014.7 |
| 20260508044307 | 51 | 219 | 0.0 | 0.0 | 0.00 | 0.22 | 0.00 | 56 | 1014.6 |
| 20260508043806 | 51 | 219 | 0.0 | 3.0 | 0.00 | 0.22 | 0.00 | 56 | 1014.6 |
| 20260508043306 | 51 | 219 | 0.0 | 3.0 | 0.00 | 0.22 | 0.00 | 56 | 1014.5 |
| 20260508042805 | 52 | 214 | 2.0 | 4.0 | 0.00 | 0.22 | 0.00 | 55 | 1014.5 |
| 20260508042307 | 52 | 226 | 0.0 | 0.0 | 0.00 | 0.22 | 0.00 | 55 | 1014.5 |
| 20260508041303 | 52 | 226 | 0.0 | 5.0 | 0.00 | 0.22 | 0.00 | 54 | 1014.5 |
| 20260508040302 | 52 | 205 | 5.0 | 6.0 | 0.00 | 0.22 | 0.00 | 53 | 1014.5 |
| 20260508035803 | 53 | 203 | 0.0 | 7.0 | 0.00 | 0.22 | 0.00 | 52 | 1014.4 |
| 20260508035301 | 53 | 228 | 4.0 | 7.0 | 0.00 | 0.22 | 0.00 | 52 | 1014.3 |
| 20260508034300 | 53 | 191 | 3.0 | 6.0 | 0.00 | 0.22 | 0.00 | 52 | 1014.4 |
| 20260508033800 | 53 | 225 | 0.0 | 7.0 | 0.00 | 0.22 | 0.00 | 51 | 1014.5 |
| 20260508033259 | 53 | 205 | 4.0 | 6.0 | 0.00 | 0.22 | 0.00 | 51 | 1014.5 |
| 20260508032759 | 53 | 222 | 2.0 | 4.0 | 0.00 | 0.22 | 0.00 | 51 | 1014.5 |
| 20260508032258 | 53 | 211 | 0.0 | 6.0 | 0.00 | 0.22 | 0.00 | 50 | 1014.4 |
| 20260508031758 | 53 | 179 | 1.0 | 1.0 | 0.00 | 0.22 | 0.00 | 50 | 1014.3 |
| 20260508031257 | 54 | 259 | 0.0 | 3.0 | 0.00 | 0.22 | 0.00 | 50 | 1014.4 |
| 20260508030757 | 54 | 290 | 0.0 | 4.0 | 0.00 | 0.22 | 0.00 | 50 | 1014.5 |
| 20260508030256 | 54 | 186 | 0.0 | 3.0 | 0.00 | 0.22 | 0.00 | 50 | 1014.4 |
| 20260508025756 | 54 | 198 | 0.0 | 3.0 | 0.00 | 0.22 | 0.00 | 50 | 1014.3 |
| 20260508025255 | 54 | 198 | 0.0 | 5.0 | 0.00 | 0.22 | 0.00 | 50 | 1014.2 |
| 20260508024755 | 54 | 176 | 2.0 | 5.0 | 0.00 | 0.22 | 0.00 | 49 | 1014.2 |
| 20260508024254 | 54 | 149 | 3.0 | 3.0 | 0.00 | 0.22 | 0.00 | 48 | 1014.2 |
| 20260508023754 | 54 | 232 | 0.0 | 0.0 | 0.00 | 0.22 | 0.00 | 48 | 1014.4 |
| 20260508023253 | 54 | 232 | 0.0 | 1.0 | 0.00 | 0.22 | 0.00 | 48 | 1014.3 |
| 20260508022752 | 54 | 232 | 0.0 | 4.0 | 0.00 | 0.22 | 0.00 | 48 | 1014.4 |
| 20260508022252 | 54 | 231 | 3.0 | 2.0 | 0.00 | 0.22 | 0.00 | 48 | 1014.4 |
| 20260508021751 | 55 | 232 | 0.0 | 0.0 | 0.00 | 0.22 | 0.00 | 48 | 1014.4 |
| 20260508021251 | 55 | 232 | 0.0 | 1.0 | 0.00 | 0.22 | 0.00 | 48 | 1014.3 |
| 20260508020750 | 55 | 205 | 0.0 | 0.0 | 0.00 | 0.22 | 0.00 | 48 | 1014.2 |
| 20260508015749 | 55 | 217 | 2.0 | 0.0 | 0.00 | 0.22 | 0.00 | 46 | 1014.3 |
| 20260508014748 | 55 | 135 | 0.0 | 5.0 | 0.00 | 0.22 | 0.00 | 47 | 1014.2 |
| 20260508014248 | 55 | 188 | 3.0 | 0.0 | 0.00 | 0.22 | 0.00 | 48 | 1014.1 |
| 20260508013747 | 55 | 205 | 0.0 | 0.0 | 0.00 | 0.22 | 0.00 | 49 | 1014.2 |
| 20260508013247 | 56 | 205 | 0.0 | 0.0 | 0.00 | 0.22 | 0.00 | 47 | 1014.2 |
| 20260508012246 | 56 | 205 | 0.0 | 4.0 | 0.00 | 0.22 | 0.00 | 43 | 1014.3 |
| 20260508011745 | 56 | 242 | 0.0 | 0.0 | 0.00 | 0.22 | 0.00 | 44 | 1014.3 |
| 20260508011245 | 57 | 255 | 0.0 | 0.0 | 0.00 | 0.22 | 0.00 | 44 | 1014.3 |
| 20260508010744 | 57 | 255 | 0.0 | 0.0 | 0.00 | 0.22 | 0.00 | 42 | 1014.2 |
| 20260508010244 | 57 | 255 | 0.0 | 0.0 | 0.00 | 0.22 | 0.00 | 41 | 1014.1 |
| 20260508005743 | 58 | 255 | 0.0 | 0.0 | 0.00 | 0.22 | 0.00 | 40 | 1014.2 |
| 20260508005243 | 58 | 255 | 0.0 | 4.0 | 0.00 | 0.22 | 0.00 | 40 | 1014.2 |
| 20260508004742 | 58 | 255 | 2.0 | 5.0 | 0.00 | 0.22 | 0.00 | 39 | 1014.2 |
| 20260508003741 | 58 | 228 | 1.0 | 4.0 | 0.00 | 0.22 | 0.00 | 38 | 1014.1 |
| 20260508003240 | 58 | 260 | 0.0 | 6.0 | 0.00 | 0.22 | 0.00 | 38 | 1014.1 |
| 20260508002740 | 58 | 256 | 0.0 | 4.0 | 0.00 | 0.22 | 0.00 | 38 | 1014.1 |
| 20260508002239 | 59 | 269 | 2.0 | 5.0 | 0.00 | 0.22 | 0.00 | 38 | 1014.0 |
| 20260508001739 | 59 | 256 | 2.0 | 6.0 | 0.00 | 0.22 | 0.00 | 38 | 1013.8 |
| 20260508001238 | 59 | 239 | 3.0 | 7.0 | 0.00 | 0.22 | 0.00 | 37 | 1013.8 |
| 20260508000738 | 59 | 217 | 0.0 | 8.0 | 0.00 | 0.22 | 0.00 | 37 | 1013.8 |
| 20260508000237 | 59 | 229 | 4.0 | 6.0 | 0.00 | 0.22 | 0.00 | 36 | 1013.8 |
| 20260507235737 | 59 | 256 | 0.0 | 8.0 | 0.00 | 0.22 | 0.00 | 37 | 1013.8 |
| 20260507235236 | 60 | 325 | 4.0 | 6.0 | 0.00 | 0.22 | 0.00 | 36 | 1014.0 |
| 20260507234235 | 60 | 321 | 3.0 | 7.0 | 0.00 | 0.22 | 0.00 | 36 | 1013.8 |
| 20260507233234 | 60 | 269 | 4.0 | 9.0 | 0.00 | 0.22 | 0.00 | 35 | 1013.7 |
| 20260507232733 | 60 | 232 | 6.0 | 11.0 | 0.00 | 0.22 | 0.00 | 35 | 1013.8 |
| 20260507232233 | 60 | 232 | 5.0 | 9.0 | 0.00 | 0.22 | 0.00 | 35 | 1013.7 |
| 20260507231732 | 60 | 305 | 6.0 | 7.0 | 0.00 | 0.22 | 0.00 | 35 | 1014.0 |
| 20260507231231 | 60 | 277 | 5.0 | 10.0 | 0.00 | 0.22 | 0.00 | 34 | 1013.7 |
| 20260507230730 | 60 | 252 | 3.0 | 9.0 | 0.00 | 0.22 | 0.00 | 35 | 1013.7 |
| 20260507225729 | 60 | 295 | 4.0 | 9.0 | 0.00 | 0.22 | 0.00 | 34 | 1013.8 |
| 20260507224228 | 60 | 304 | 6.0 | 8.0 | 0.00 | 0.22 | 0.00 | 35 | 1013.7 |
| 20260507223727 | 60 | 245 | 4.0 | 8.0 | 0.00 | 0.22 | 0.00 | 35 | 1013.7 |
| 20260507223227 | 60 | 235 | 6.0 | 9.0 | 0.00 | 0.22 | 0.00 | 35 | 1013.6 |
| 20260507222726 | 60 | 322 | 5.0 | 12.0 | 0.00 | 0.22 | 0.00 | 35 | 1013.7 |
| 20260507222226 | 60 | 256 | 7.0 | 10.0 | 0.00 | 0.22 | 0.00 | 34 | 1013.7 |
| 20260507221725 | 60 | 323 | 7.0 | 7.0 | 0.00 | 0.22 | 0.00 | 34 | 1013.8 |
| 20260507221225 | 60 | 236 | 3.0 | 9.0 | 0.00 | 0.22 | 0.00 | 36 | 1014.0 |
| 20260507220724 | 60 | 294 | 5.0 | 9.0 | 0.00 | 0.22 | 0.00 | 37 | 1014.0 |
| 20260507220224 | 60 | 11 | 4.0 | 7.0 | 0.00 | 0.22 | 0.00 | 36 | 1014.1 |
| 20260507215722 | 59 | 281 | 5.0 | 11.0 | 0.00 | 0.22 | 0.00 | 37 | 1014.1 |
| 20260507215222 | 59 | 287 | 4.0 | 9.0 | 0.00 | 0.22 | 0.00 | 36 | 1014.1 |
| 20260507214721 | 59 | 263 | 3.0 | 9.0 | 0.00 | 0.22 | 0.00 | 37 | 1014.1 |
| 20260507214221 | 59 | 332 | 2.0 | 9.0 | 0.00 | 0.22 | 0.00 | 37 | 1014.1 |
| 20260507213720 | 59 | 319 | 6.0 | 12.0 | 0.00 | 0.22 | 0.00 | 38 | 1014.1 |
| 20260507213219 | 59 | 287 | 8.0 | 13.0 | 0.00 | 0.22 | 0.00 | 36 | 1014.2 |
| 20260507212719 | 60 | 288 | 7.0 | 14.0 | 0.00 | 0.22 | 0.00 | 35 | 1014.2 |
| 20260507212218 | 60 | 336 | 5.0 | 9.0 | 0.00 | 0.22 | 0.00 | 36 | 1014.2 |
| 20260507211718 | 59 | 235 | 7.0 | 12.0 | 0.00 | 0.22 | 0.00 | 34 | 1014.1 |
| 20260507211217 | 59 | 283 | 6.0 | 13.0 | 0.00 | 0.22 | 0.00 | 35 | 1014.2 |
| 20260507210717 | 59 | 332 | 8.0 | 16.0 | 0.00 | 0.22 | 0.00 | 36 | 1014.2 |
| 20260507210216 | 60 | 301 | 3.0 | 15.0 | 0.00 | 0.22 | 0.00 | 35 | 1014.1 |
| 20260507205716 | 60 | 240 | 3.0 | 11.0 | 0.00 | 0.22 | 0.00 | 35 | 1014.1 |
| 20260507204714 | 59 | 245 | 8.0 | 16.0 | 0.00 | 0.22 | 0.00 | 35 | 1014.0 |
| 20260507204212 | 59 | 233 | 6.0 | 17.0 | 0.00 | 0.22 | 0.00 | 37 | 1014.0 |
| 20260507203712 | 59 | 346 | 1.0 | 12.0 | 0.00 | 0.22 | 0.00 | 35 | 1014.0 |
| 20260507203211 | 59 | 325 | 9.0 | 9.0 | 0.00 | 0.22 | 0.00 | 37 | 1014.0 |